South St. Paul, MN

12:45 AM CST on January 24, 2018 (GMT -0600)
South Saint Paul Municipal-Fleming

Weather History for KSGS - December, 2011

Change the Weather History Date:

Tuesday, December 6, 2011

  Actual Average (KSTP) Record (KSTP)
Temperature  
Mean Temperature 16 °F -  
Max Temperature 19 °F 33 °F 46 °F (2012)
Min Temperature 13 °F 19 °F -5 °F (2005)
Degree Days  
Heating Degree Days 48    
Moisture  
Dew Point 10 °F    
Average Humidity 74    
Maximum Humidity 82    
Minimum Humidity 63    
Precipitation  
Precipitation 0.00 in - - ()
Sea Level Pressure  
Sea Level Pressure 30.33 in    
Wind  
Wind Speed 6 mph (West)    
Max Wind Speed 10 mph    
Max Gust Speed -    
Visibility 9 miles    
Events Snow    
Averages and records for this station are not official NWS values.
T = Trace of Precipitation, MM = Missing Value Source: NWS Daily Summary

Daily Weather History Graph

Daily Weather History Graph

Search for Another Location

Airport or City:

Trip Planner

Search our weather history database for the weather conditions in past years. The results will help you decide how hot, cold, wet, or windy it might be!

Date:

Astronomy

Dec. 06, 2011 Rise Set
Actual Time 7:34 AM CST 4:31 PM CST
Civil Twilight 7:01 AM CST 5:04 PM CST
Nautical Twilight 6:24 AM CST 5:41 PM CST
Astronomical Twilight 5:49 AM CST 6:16 PM CST
Moon 2:03 PM CST (12/6) 3:48 AM CST (12/6)
Length of Visible Light 10h 03m
Length of Day
8h 56m
Waxing Gibbous, 87% of the Moon is Illuminated
Dec 6
Waxing Gibbous
Dec 10
Full
Dec 17
Last Quarter
Dec 24
New
Jan 1
First Quarter

Hourly Weather History & Observations

Time (CST) Temp. Windchill Dew Point Humidity Pressure Visibility Wind Dir Wind Speed Gust Speed Precip Events Conditions
12:14 AM 18.5 °F 9.3 °F 12.7 °F 78% 30.46 in 10.0 mi North 6.9 mph - N/A   Overcast
12:34 AM 18.3 °F 9.1 °F 12.4 °F 78% 30.46 in 10.0 mi North 6.9 mph - N/A   Overcast
12:54 AM 18.3 °F 9.1 °F 12.4 °F 78% 30.45 in 10.0 mi NNW 6.9 mph - N/A   Overcast
1:14 AM 18.0 °F 8.7 °F 12.0 °F 78% 30.45 in 10.0 mi NNW 6.9 mph - N/A   Overcast
1:33 AM 17.6 °F 8.2 °F 11.8 °F 78% 30.45 in 10.0 mi NNW 6.9 mph - N/A   Overcast
2:14 AM 17.4 °F 10.4 °F 11.1 °F 76% 30.44 in 10.0 mi NNW 4.6 mph - N/A   Overcast
2:34 AM 17.2 °F 7.8 °F 10.9 °F 76% 30.45 in 10.0 mi NNW 6.9 mph - N/A   Overcast
2:54 AM 17.1 °F 6.6 °F 10.8 °F 76% 30.44 in 10.0 mi North 8.1 mph - N/A   Overcast
3:14 AM 17.1 °F 10.0 °F 10.8 °F 76% 30.43 in 10.0 mi North 4.6 mph - N/A   Overcast
3:33 AM 17.1 °F 10.0 °F 10.4 °F 75% 30.43 in 10.0 mi North 4.6 mph - N/A   Overcast
3:54 AM 16.9 °F 9.8 °F 10.4 °F 76% 30.41 in 10.0 mi North 4.6 mph - N/A   Overcast
4:14 AM 17.1 °F 10.0 °F 10.4 °F 75% 30.41 in 10.0 mi North 4.6 mph - N/A   Overcast
4:34 AM 16.7 °F 9.6 °F 10.2 °F 76% 30.40 in 10.0 mi North 4.6 mph - N/A   Overcast
4:53 AM 16.7 °F 11.2 °F 10.2 °F 76% 30.40 in 10.0 mi North 3.5 mph - N/A   Overcast
5:14 AM 16.7 °F 9.6 °F 10.4 °F 76% 30.40 in 10.0 mi North 4.6 mph - N/A Snow Light Snow
5:34 AM 16.9 °F - 10.4 °F 76% 30.40 in 10.0 mi Calm Calm - N/A   Overcast
5:54 AM 17.1 °F 10.0 °F 10.4 °F 75% 30.39 in 10.0 mi North 4.6 mph - N/A   Overcast
6:14 AM 17.1 °F 11.7 °F 10.8 °F 76% 30.39 in 10.0 mi North 3.5 mph - N/A   Overcast
6:33 AM 17.1 °F - 10.9 °F 77% 30.38 in 10.0 mi Calm Calm - N/A   Overcast
6:54 AM 17.1 °F - 10.8 °F 76% 30.38 in 10.0 mi Calm Calm - N/A   Overcast
7:14 AM 17.1 °F - 10.8 °F 76% 30.37 in 10.0 mi Calm Calm - N/A   Overcast
7:34 AM 16.9 °F - 11.1 °F 78% 30.36 in 10.0 mi Calm Calm - N/A   Overcast
7:54 AM 17.1 °F 11.7 °F 11.5 °F 79% 30.37 in 2.0 mi WNW 3.5 mph - N/A Snow Light Snow
8:14 AM 16.9 °F 11.5 °F 12.2 °F 82% 30.36 in 1.5 mi WNW 3.5 mph - N/A Snow Light Snow
8:34 AM 16.9 °F 8.5 °F 12.0 °F 81% 30.36 in 1.5 mi WNW 5.8 mph - N/A Snow Light Snow
8:54 AM 17.1 °F 8.7 °F 12.0 °F 81% 30.37 in 2.0 mi WNW 5.8 mph - N/A Snow Light Snow
9:14 AM 17.1 °F 8.7 °F 11.8 °F 80% 30.36 in 7.0 mi West 5.8 mph - N/A Snow Light Snow
9:34 AM 17.1 °F 8.7 °F 11.5 °F 79% 30.36 in 7.0 mi WNW 5.8 mph - N/A   Overcast
9:54 AM 16.3 °F 9.2 °F 10.4 °F 77% 30.36 in 10.0 mi West 4.6 mph - N/A   Overcast
10:14 AM 16.7 °F 9.6 °F 10.4 °F 76% 30.35 in 10.0 mi WSW 4.6 mph - N/A   Overcast
10:34 AM 16.7 °F 8.3 °F 9.5 °F 73% 30.34 in 10.0 mi WSW 5.8 mph - N/A   Overcast
10:54 AM 17.6 °F 9.3 °F 9.5 °F 71% 30.33 in 10.0 mi WSW 5.8 mph - N/A   Overcast
11:14 AM 17.6 °F 12.3 °F 10.9 °F 75% 30.32 in 10.0 mi WSW 3.5 mph - N/A   Overcast
11:34 AM 18.3 °F 9.1 °F 11.3 °F 74% 30.31 in 10.0 mi West 6.9 mph - N/A   Overcast
11:54 AM 19.0 °F 11.1 °F 11.5 °F 72% 30.30 in 10.0 mi WSW 5.8 mph - N/A   Overcast
12:14 PM 18.9 °F 8.8 °F 9.3 °F 66% 30.28 in 10.0 mi SW 8.1 mph - N/A   Mostly Cloudy
12:34 PM 19.0 °F 9.0 °F 9.7 °F 67% 30.27 in 10.0 mi South 8.1 mph - N/A   Scattered Clouds
12:54 PM 19.4 °F 12.8 °F 9.5 °F 65% 30.26 in 10.0 mi WSW 4.6 mph - N/A   Scattered Clouds
1:34 PM 19.8 °F 11.9 °F 9.5 °F 64% 30.24 in 10.0 mi SW 5.8 mph - N/A   Scattered Clouds
1:54 PM 19.9 °F 9.3 °F 9.3 °F 63% 30.23 in 10.0 mi WSW 9.2 mph - N/A   Clear
2:14 PM 19.9 °F 9.3 °F 9.5 °F 64% 30.22 in 10.0 mi WSW 9.2 mph - N/A   Clear
2:34 PM 19.8 °F 8.3 °F 9.3 °F 64% 30.20 in 10.0 mi SW 10.4 mph - N/A   Scattered Clouds
2:54 PM 19.4 °F 8.6 °F 9.3 °F 65% 30.20 in 10.0 mi WSW 9.2 mph - N/A   Clear
3:14 PM 19.2 °F 8.4 °F 9.3 °F 65% 30.20 in 10.0 mi SW 9.2 mph - N/A   Clear
3:33 PM 18.9 °F 9.8 °F 9.0 °F 65% 30.19 in 10.0 mi SW 6.9 mph - N/A   Clear
3:54 PM 18.3 °F 7.3 °F 8.6 °F 66% 30.19 in 10.0 mi SSW 9.2 mph - N/A   Scattered Clouds
4:14 PM 17.2 °F 7.8 °F 8.2 °F 68% 30.18 in 10.0 mi SW 6.9 mph - N/A   Clear
4:34 PM 16.5 °F 8.1 °F 8.1 °F 69% 30.18 in 10.0 mi SW 5.8 mph - N/A   Clear
4:54 PM 16.2 °F 7.6 °F 7.9 °F 70% 30.17 in 10.0 mi SW 5.8 mph - N/A   Clear
5:14 PM 14.7 °F 5.9 °F 7.3 °F 73% 30.17 in 10.0 mi SSW 5.8 mph - N/A   Clear
5:33 PM 14.5 °F 4.6 °F 7.7 °F 74% 30.16 in 10.0 mi SSW 6.9 mph - N/A   Clear
5:54 PM 14.0 °F 2.0 °F 7.2 °F 74% 30.15 in 10.0 mi South 9.2 mph - N/A   Clear
6:14 PM 13.3 °F 4.2 °F 6.6 °F 75% 30.14 in 10.0 mi South 5.8 mph - N/A   Clear
6:34 PM 12.6 °F 0.2 °F 6.4 °F 77% 30.13 in 10.0 mi South 9.2 mph - N/A   Clear
6:54 PM 11.8 °F -0.7 °F 5.9 °F 77% 30.12 in 10.0 mi South 9.2 mph - N/A   Clear
7:14 PM 11.3 °F -1.3 °F 5.7 °F 78% 30.11 in 10.0 mi South 9.2 mph - N/A   Clear
7:34 PM 10.4 °F -3.3 °F 5.0 °F 79% 30.11 in 10.0 mi South 10.4 mph - N/A   Clear
7:54 PM 10.0 °F 0.4 °F 4.8 °F 79% 30.11 in 10.0 mi South 5.8 mph - N/A   Clear
8:14 PM 9.5 °F -0.3 °F 4.5 °F 80% 30.10 in 10.0 mi South 5.8 mph - N/A   Clear
8:33 PM 9.1 °F 0.8 °F 3.9 °F 79% 30.10 in 10.0 mi South 4.6 mph - N/A   Clear
8:54 PM 8.6 °F 0.1 °F 3.6 °F 80% 30.10 in 10.0 mi South 4.6 mph - N/A   Clear
9:14 PM 9.0 °F -0.9 °F 3.6 °F 79% 30.08 in 10.0 mi South 5.8 mph - N/A   Clear
9:34 PM 9.1 °F 0.8 °F 3.4 °F 77% 30.08 in 10.0 mi South 4.6 mph - N/A   Clear
9:54 PM 9.0 °F -2.2 °F 3.2 °F 77% 30.08 in 10.0 mi South 6.9 mph - N/A   Clear
10:14 PM 9.1 °F -3.0 °F 3.2 °F 77% 30.06 in 10.0 mi South 8.1 mph - N/A   Scattered Clouds
10:34 PM 9.3 °F -3.8 °F 3.2 °F 76% 30.06 in 10.0 mi South 9.2 mph - N/A   Mostly Cloudy
10:54 PM 10.4 °F -1.5 °F 3.7 °F 74% 30.05 in 10.0 mi South 8.1 mph - N/A   Overcast
11:14 PM 10.9 °F -2.6 °F 4.1 °F 74% 30.04 in 10.0 mi South 10.4 mph - N/A   Overcast
11:34 PM 11.3 °F -0.4 °F 4.3 °F 73% 30.03 in 10.0 mi South 8.1 mph - N/A   Overcast
11:54 PM 12.0 °F 1.5 °F 4.8 °F 73% 30.03 in 10.0 mi South 6.9 mph - N/A   Overcast